Location: Trois-Rivi�res
(46.3500°N, 72.5500°W)
Time: 10:17:00
(UTC-04:00)

Tiangong 1 - Pass Details

Date: 12 October 2017
Orbit: 293 x 320 km, 42.8° (Epoch: 20 October)

Event Time Altitude Azimuth Distance (km) Brightness Sun altitude
Rises 19:43:11 0° 267° (W) 2,041 6.4 -17.1°
Reaches altitude 10° 19:45:21 10° 254° (WSW) 1,204 4.6 -17.5°
Maximum altitude 19:47:39 25° 195° (SSW) 676 2.3 -17.9°
Enters shadow 19:47:43 25° 193° (SSW) 676 2.3 -17.9°
